Probability
0 0 0 0 0 0 0 0 0 0 0 0 0 0 0 0 0 0 0 0 0 0 0 0 0 0 0 0 0 0 0 0 0 0 0 0 0 0 0 0 0 0 0
0 0 0 0 0 0 0 0 0 0 0 0 0 0 0 0 0 0 0 0 0 0 0 0 0 0 0 0 0 0 0 0 0 0 0 0 0 0 0 0 0 0 0
0 0 0 0 0 0 0 0 0 0 0 0 0 0 0 0 0 0 0 0 0 0 0 0 0 0 0 0 0 0 0 0 0 0 0 0 0 0 0 0 0 0 0
0 0 0 0 0 0 0 0 0 0 0 0 0 0 0 0 0 0 0 0 0 0 0 0 0 0 0 0 0 0 0 0 0 0 0 0 0 0 0 0 0 0 0
0 0 0 0 0 0 0 0 0 0 0 0 0 0 0 0 0 0 0 0 0 0 0 0 0 0 0 0 0 0 0 0 0 0 0 0 0 0 0 0 0 0 0
0 0 0 0 0 0 0 0 0 0 0 0 0 0 0 0 0 0 0 0 0 0 0 0 0 0 0 0 0 0 0 0 0 0 0 0 0 0 0 0 0 0 0
0 0 0 0 0 0 0 0 0 0 0 0 0 0 0 0 0 0 0 0 0 0 0 0 0 0 0 0 0 0 0 0 0 0 0 0 0 0 0 0 0 0 0
0 0 0 0 0 0 0 0 0 0 0 0 0 0 0 0 0 0 0 0 0 0 0 0 0 0 0 0 0 0 0 0 0 0 0 0 0 0 0 0 0 0 0
0 0 0 0 0 0 0 0 0 0 0 0 0 0 0 0 0 0 0 0 0 0 0 0 0 0 0 0 0 0 0 0 0 0 0 0 0 0 0 0 0 0 0
0 0 0 0 0 0 0 0 0 0 0 0 0 0 0 0 0 0 0 0 0 0 0 0 0 0 0 0 0 0 0 0 0 0 0 0 0 0 0 0 0 0 0
0 0 0 0 0 0 0 0 0 0 0 0 0 0 0 0 0 0 0 0 0 0 0 0 0 0 0 0 0 0 0 0 0 0 0 0 0 0 0 0 0 0 0
0 0 0 0 0 0 0 0 0 0 0 0 0 0 0 0 0 0 0 0 0 0 0 0 0 0 0 0 0 0 0 0 0 0 0 0 0 0 0 0 0 0 0
0 0 0 0 0 0 0 0 0 0 0 0 0 0 0 0 0 0 0 0 0 0 0 0 0 0 0 0 0 0 0 0 0 0 0 0 0 0 0 0 0 0 0
0 0 0 0 0 0 0 0 0 0 0 0 0 0 0 0 0 0 0 0 0 0 0 0 0 0 0 0 0 0 0 0 0 0 0 0 0 0 0 0 0 0 0
0 0 0 0 0 0 0 0 0 0 0 0 0 0 0 0 0 0 0 0 0 0 0 0 0 0 0 0 0 0 0 0 0 0 0 0 0 0 0 0 0 0 0
0 0 0 0 0 0 0 0 0 0 0 0 0 0 0 0 0 0 0 0 0 0 0 0 0 0 0 0 0 0 0 0 0 0 0 0 0 0 0 0 0 0 0
0 0 0 0 0 0 0 0 0 0 0 0 0 0 0 0 0 0 0 0 0 0 0 0 0 0 0 0 0 0 0 0 0 0 0 0 0 0 0 0 0 0 0
0 0 0 0 0 0 0 0 0 0 0 0 0 0 0 0 0 0 0 0 0 0 0 0 0 0 0 0 0 0 0 0 0 0 0 0 0 0 0 0 0 0 0
0 0 0 0 0 0 0 0 0 0 0 0 0 0 0 0 0 0 0 0 0 0 0 0 0 0 0 0 0 0 0 0 0 0 0 0 0 0 0 0 0 0 0
0 0 0 0 0 0 0 0 0 0 0 0 0 0 0 0 0 0 0 0 0 0 0 0 0 0 0 0 0 0 0 0 0 0 0 0 0 0 0 0 0 0 0
0 0 0 0 0 0 0 0 0 0 0 0 0 0 0 0 0 0 0 0 0 0 0 0 0 0 0 0 0 0 0 0 0 0 0 0 0 0 0 0 0 0 0
0 0 0 0 0 0 0 0 0 0 0 0 0 0 0 0 0 0 0 0 0 0 0 0 0 0 0 0 0 0 0 0 0 0 0 0 0 0 0 0 0 0 0
0 0 0 0 0 0 0 0 0 0 0 0 0 0 0 0 0 0 0 0 0 0 0 0 0 0 0 0 0 0 0 0 0 0 0 0 0 0 0 0 0 0 0
0 0 0 0 0 0 0 0 0 0 0 0 0 0 0 0 0 0 0 0 0 0 0 0 0 0 0 0 0 0 0 0 0 0 0 0 0 0 0 0 0 0 0
0 0 0 0 0 0 0 0 0 0 0 0 0 0 0 0 0 0 0 0 0 0 0 0 0 0 0 0 0 0 0 0 0 0 0 0 0 0 0 0 0 0 0
0 0 0 0 0 0 0 0 0 0 0 0 0 0 0 0 0 0 0 0 0 0 0 0 0 0 0 0 0 0 0 0 0 0 0 0 0 0 0 0 0 0 0
Wind_Speed
9 8 7 6 7 7 8 8 9 10 10 10 9 10 10 10 10 9 9 17 19 20 20 21 21 21 21 21 21 22 22 22 22 23 23 23 23 24 24 24 25 25 26
9 9 8 7 7 7 7 8 10 10 9 8 10 10 10 9 9 9 9 12 19 19 19 19 19 19 19 20 20 21 21 22 22 22 22 22 23 23 23 24 24 25 25
11 10 9 8 8 8 10 9 10 9 9 9 10 9 8 8 9 9 8 7 10 16 18 18 18 18 18 18 19 19 20 20 21 21 21 22 22 23 23 24 24 25 25
12 10 9 9 9 9 9 9 9 9 9 8 8 7 7 7 8 8 7 7 6 7 13 17 17 17 17 17 18 18 19 19 19 20 20 21 21 22 22 23 23 24 25
13 11 10 9 11 9 9 9 9 9 10 9 8 6 6 6 6 7 8 8 7 7 7 12 16 17 16 16 16 17 17 18 18 18 19 20 20 21 22 22 23 23 24
12 11 10 12 12 10 9 9 11 9 9 10 9 7 5 5 4 5 6 6 6 7 7 7 7 10 14 15 15 16 16 16 17 17 18 19 20 20 21 22 22 23 24
12 11 10 13 12 11 12 14 12 13 10 10 8 6 5 5 5 4 4 5 5 6 6 6 5 5 5 11 14 14 15 16 16 17 18 18 19 20 21 21 22 23 24
11 10 14 13 13 11 13 14 15 10 8 10 7 7 6 5 4 3 3 4 5 4 5 5 6 5 4 4 8 13 14 15 15 16 17 18 19 20 21 21 22 23 24
10 10 14 13 14 14 15 17 17 14 12 10 7 6 6 7 6 5 5 4 4 4 4 4 4 4 4 3 4 9 12 14 15 16 17 18 19 20 21 21 22 23 24
10 10 12 13 15 13 16 17 17 12 15 12 7 4 3 4 6 7 6 5 5 5 4 4 3 3 2 2 3 7 11 12 13 15 16 17 18 19 20 21 22 23 25
9 10 11 12 13 12 15 17 15 13 12 12 9 6 4 3 3 5 6 7 6 5 4 4 3 3 2 1 2 6 9 11 12 13 15 16 17 19 20 21 23 24 25
7 10 10 11 12 11 14 16 15 15 12 12 9 7 6 6 6 4 5 7 6 5 5 4 4 3 2 0 2 5 8 10 12 13 14 15 17 18 20 21 23 24 25
8 12 12 11 11 10 12 13 14 14 14 13 11 7 5 4 4 4 5 5 5 4 5 5 4 4 3 2 1 4 6 9 11 13 14 15 17 18 20 21 23 24 25
11 13 14 13 13 12 12 12 11 12 11 12 10 8 6 5 5 4 4 5 5 4 5 6 5 4 4 3 3 6 5 8 11 13 14 16 17 18 20 21 22 24 25
9 14 14 14 13 13 13 13 10 12 11 10 10 9 7 5 4 4 4 4 5 5 5 6 5 5 4 3 4 5 6 8 12 14 15 16 17 18 20 21 22 24 25
10 13 13 13 13 13 14 13 11 12 12 10 9 10 8 6 5 5 4 3 2 3 3 3 4 3 4 4 5 6 7 11 12 12 14 16 17 18 19 20 22 24 25
13 14 14 14 14 15 14 14 13 14 14 12 11 11 10 9 7 5 5 4 3 3 3 2 2 3 5 6 5 5 6 7 7 11 14 16 18 18 19 20 22 24 25
14 14 14 14 15 15 15 16 16 16 16 15 14 13 12 9 9 7 6 6 5 4 4 4 3 3 5 5 6 7 6 6 8 12 15 17 18 17 18 20 22 23 23
14 14 14 15 15 15 15 15 16 16 16 15 15 15 14 12 11 8 7 6 5 4 4 4 4 3 4 4 6 7 8 8 8 9 13 15 15 16 19 21 21 21 22
15 16 16 16 15 15 15 15 15 15 14 14 14 13 13 13 12 11 8 7 6 6 5 5 5 5 5 5 5 6 7 7 7 7 10 10 13 16 18 19 19 20 21
15 15 15 14 13 13 13 15 15 15 15 14 13 12 12 12 12 10 7 8 8 6 6 5 5 5 5 5 5 5 7 8 9 7 7 7 8 9 11 13 15 18 22
13 13 14 14 15 13 19 24 18 15 14 15 13 11 10 10 12 14 13 12 12 9 8 6 6 7 9 7 6 6 7 8 8 4 6 8 8 10 9 9 15 21 23
13 14 14 15 15 17 25 26 21 14 14 14 13 12 9 8 9 8 12 15 14 15 14 9 9 10 9 7 7 8 8 9 10 7 8 10 9 10 9 10 19 21 22
12 13 13 14 13 14 23 25 21 12 11 11 11 12 11 10 9 10 9 10 11 12 14 12 11 10 9 7 7 8 10 11 11 7 6 8 9 10 10 10 16 19 21
10 10 9 10 10 11 20 23 22 9 9 9 9 9 9 9 13 15 11 10 11 10 13 17 17 15 15 14 11 7 8 8 9 8 4 5 7 10 10 9 10 16 20
7 7 6 7 8 8 18 23 22 9 9 8 7 8 11 13 15 18 13 11 12 11 8 8 11 13 12 11 13 10 8 8 8 7 2 3 6 7 9 6 7 10 12
Wind_Direction
162 159 152 150 143 135 130 123 117 111 104 97 91 90 87 85 85 84 72 60 66 70 72 72 71 68 65 62 59 56 52 48 44 40 37 34 31 28 25 22 19 16 13
167 161 155 151 146 140 132 128 125 117 108 103 97 92 92 91 87 87 85 71 64 66 69 70 69 67 65 62 58 54 50 46 42 38 35 32 29 26 23 20 17 14 11
172 165 158 155 148 140 133 127 124 118 114 110 103 96 91 88 92 89 86 81 74 66 65 67 67 65 62 59 56 53 49 45 40 36 33 29 25 23 20 17 14 11 8
176 167 160 157 150 145 143 138 137 128 123 119 111 102 96 92 88 89 87 86 81 76 68 64 62 62 60 56 53 50 46 43 38 34 30 26 22 19 16 13 10 7 4
176 169 163 157 153 149 148 144 142 137 131 124 114 105 99 95 94 94 91 87 83 82 79 70 61 56 56 53 49 46 43 40 35 30 26 22 18 15 11 9 6 3 0
177 168 160 159 156 151 151 149 142 137 133 129 119 103 97 102 104 103 103 97 91 88 84 78 68 58 53 50 46 42 38 35 31 26 21 17 14 10 7 4 1 358 356
174 167 160 162 163 162 161 154 145 140 140 139 128 119 110 111 116 118 120 117 108 99 92 82 72 65 55 47 41 36 32 29 25 20 16 12 8 4 1 358 356 353 351
174 170 166 167 168 161 158 157 152 147 157 170 156 152 157 167 167 148 146 139 132 124 107 92 83 70 58 50 36 32 25 21 17 13 9 5 1 358 355 353 350 348 346
177 174 174 170 171 168 167 170 168 164 169 184 196 183 174 176 159 169 171 167 160 151 134 120 103 83 63 50 33 27 18 13 9 5 1 358 354 351 348 347 345 343 342
182 179 178 176 176 176 174 177 180 179 171 177 188 226 248 153 160 160 177 182 180 176 164 153 143 117 77 53 36 20 8 4 1 357 354 350 347 345 343 341 340 339 338
185 183 181 181 183 183 180 181 182 184 182 183 177 170 172 166 169 160 166 175 185 187 182 175 171 158 134 39 14 13 356 352 350 348 345 343 340 339 337 336 336 336 335
185 188 186 187 188 188 185 185 184 187 187 189 185 179 172 171 177 170 157 167 178 173 183 191 192 185 183 269 11 347 338 339 339 338 338 336 334 333 333 332 333 333 332
190 191 187 190 191 193 189 185 185 189 189 188 188 185 181 168 152 152 145 146 163 155 182 196 198 196 200 245 284 326 309 325 328 329 330 329 328 328 329 329 329 329 328
193 187 189 189 191 189 187 186 185 187 188 188 185 175 163 149 150 151 147 149 154 164 188 190 181 200 209 235 287 295 292 312 318 321 323 323 323 324 324 325 326 326 325
189 185 187 187 186 185 184 182 184 183 180 180 173 163 150 141 138 132 136 154 158 173 189 184 187 190 213 240 265 281 294 308 310 312 315 316 317 318 319 321 322 322 321
186 184 186 184 183 183 182 182 178 177 172 168 161 155 146 143 136 133 133 132 144 167 181 168 191 187 220 243 263 277 288 299 294 299 305 309 310 312 314 316 318 319 319
188 188 187 184 183 182 181 181 177 171 169 162 160 157 151 149 146 144 143 145 152 170 192 182 201 218 244 256 262 271 285 289 289 289 296 301 303 306 309 313 315 316 317
193 190 188 187 187 184 181 181 175 173 170 166 164 161 158 156 157 156 160 165 169 181 199 214 216 233 249 266 279 283 282 280 280 286 290 294 297 300 305 309 311 313 315
193 191 189 192 190 186 184 184 178 175 173 170 168 168 165 164 166 168 171 172 172 178 198 215 233 240 257 263 279 277 275 274 273 277 283 287 290 295 300 304 307 310 312
195 194 194 195 193 188 185 182 178 174 172 170 171 171 170 174 173 172 175 181 177 181 192 214 235 246 255 260 267 277 281 277 279 276 276 282 288 292 294 299 304 307 309
201 197 196 197 193 188 187 183 177 174 171 168 169 171 174 177 177 174 176 184 183 189 194 214 232 246 251 250 254 266 278 290 286 277 282 286 289 289 295 299 303 307 311
200 196 198 196 196 196 192 188 178 173 170 169 170 170 171 173 183 191 201 200 195 193 201 212 228 240 252 255 258 263 276 289 291 288 291 290 291 291 295 299 307 311 313
200 200 201 199 201 203 194 190 181 170 171 174 171 168 171 177 182 196 214 219 219 223 219 220 238 245 256 259 264 266 266 272 277 295 303 292 296 294 301 303 308 309 313
202 203 203 203 203 205 198 189 175 167 169 171 171 172 174 177 189 195 207 219 225 228 230 231 241 251 257 264 257 264 276 280 280 274 268 283 298 301 306 302 305 310 315
203 204 200 199 198 198 195 185 172 159 164 166 168 173 179 185 199 203 208 220 230 238 242 240 245 254 258 258 257 260 262 267 277 278 251 266 296 306 301 296 306 313 315
195 191 190 187 184 180 188 183 172 165 167 169 175 186 195 201 207 209 213 219 231 236 228 238 248 255 257 259 257 251 257 262 273 283 251 255 291 312 304 299 312 313 313